Wind_Speed
17 18 18 18 17 15 15 16 16 17 18 19 19 18 19 20 20 20 20 20 21 21 22 22 22 22 22 23 23 23 23 24 24 24 24 24 25 25 27 27 26 26 26
17 17 18 19 18 17 16 17 17 18 18 19 18 18 18 19 19 19 20 21 21 22 21 22 21 21 22 22 22 22 22 22 23 23 24 23 24 24 25 26 26 26 25
16 16 17 19 19 18 17 17 17 18 18 18 18 18 18 18 19 19 20 21 21 22 21 20 20 21 21 20 20 21 21 22 22 23 23 22 23 23 23 23 24 25 25
17 16 17 18 18 18 17 17 17 18 18 18 18 18 18 18 19 19 20 20 21 21 21 20 20 20 20 19 19 20 20 21 22 22 22 22 22 22 21 22 23 23 24
17 17 17 17 17 16 16 17 18 18 19 19 19 18 17 18 18 18 18 19 20 20 20 20 20 20 20 19 19 19 20 20 21 21 21 21 21 21 20 20 21 22 24
16 17 17 16 17 17 16 17 17 18 18 19 18 17 17 17 17 18 19 19 20 20 20 19 19 18 19 19 18 18 19 19 19 20 20 20 20 20 20 19 20 21 23
16 16 17 17 17 17 17 17 17 17 18 17 17 17 17 17 18 18 19 19 20 19 19 19 18 18 18 18 18 18 17 17 18 19 19 19 19 19 19 19 20 20 21
16 16 16 17 18 17 16 16 16 17 17 17 17 16 16 17 17 18 18 19 19 19 19 18 18 18 18 17 17 16 16 17 18 18 18 18 18 19 19 19 19 18 19
16 15 16 17 17 16 17 16 16 16 16 16 16 16 16 16 17 18 18 19 19 19 18 18 17 17 17 17 16 16 16 16 17 17 18 18 17 17 17 17 17 17 18
14 15 16 17 17 17 17 16 15 16 16 16 15 15 15 16 17 17 18 18 18 18 17 17 17 16 16 16 16 16 15 15 16 17 17 17 17 16 16 16 16 17 18
14 15 16 16 16 16 16 15 15 16 16 16 15 15 15 16 16 17 17 17 17 17 16 15 15 15 15 15 16 16 15 15 15 17 16 16 16 15 15 15 16 17 18
15 16 16 16 16 16 15 16 16 15 15 15 14 15 15 15 15 16 16 17 17 17 16 15 15 15 15 15 15 14 14 14 15 15 15 15 13 13 13 14 15 16 16
15 15 15 15 16 16 16 16 15 14 14 14 14 14 14 14 15 15 16 16 16 16 15 15 15 15 15 14 13 13 13 13 13 14 14 13 13 13 13 14 14 14 14
15 15 15 15 16 16 16 15 14 14 13 13 12 13 13 14 14 14 15 15 15 15 15 15 15 15 14 14 13 13 14 14 14 14 14 13 13 13 13 13 13 12 11
16 16 16 15 14 14 14 14 13 13 13 12 12 12 12 13 14 14 15 15 15 15 15 15 15 15 14 13 13 14 15 15 14 14 13 13 13 13 13 12 12 11 10
17 16 15 16 15 14 14 13 13 12 12 12 11 12 13 13 14 14 15 15 15 15 16 15 15 16 15 14 14 14 14 14 14 14 13 13 13 13 13 12 11 10 9
17 17 16 16 15 14 13 13 13 12 12 12 11 11 12 13 14 15 15 15 15 15 15 15 16 16 16 15 15 14 14 15 15 14 14 13 13 13 13 12 11 10 8
17 17 17 16 16 15 15 14 13 12 12 12 12 12 13 14 14 15 15 15 15 15 16 16 16 16 16 16 15 15 15 15 15 14 14 13 12 12 12 12 11 10 9
19 17 17 17 16 16 14 13 13 13 13 13 13 13 13 14 14 15 16 16 16 16 16 16 16 16 16 16 16 15 15 15 15 14 14 13 12 12 12 11 11 10 9
19 19 18 18 17 16 15 14 14 14 14 14 14 14 14 14 14 15 16 16 16 16 16 16 16 16 16 17 16 16 15 15 15 15 14 13 12 12 12 11 11 10 9
20 20 19 18 17 16 16 15 15 15 15 16 15 15 15 15 15 16 16 16 16 16 16 16 17 17 17 17 16 16 15 14 14 14 14 13 12 12 11 10 9 8 8
21 20 20 19 18 17 17 17 17 17 17 17 17 17 17 17 17 17 16 16 15 15 16 16 17 17 17 16 16 15 15 14 14 13 13 13 13 12 11 10 10 9 8
22 21 21 20 19 18 18 18 18 18 18 19 18 18 18 18 17 16 16 15 15 14 15 15 16 15 16 16 16 15 14 14 14 13 13 13 13 12 11 11 10 10 9
22 22 21 21 20 20 20 19 18 18 19 19 18 18 18 18 17 17 16 15 14 14 14 14 15 15 15 15 15 15 14 13 13 13 13 13 12 12 11 11 10 9 8
24 23 22 22 22 22 21 20 19 19 20 19 19 18 18 18 17 17 17 16 15 14 14 15 15 15 15 15 15 14 14 14 14 13 13 13 12 12 11 10 9 8 8
26 24 23 24 24 23 22 21 20 20 20 20 20 19 18 18 18 17 18 17 16 15 15 15 15 15 15 15 14 14 14 14 13 13 13 12 11 11 11 10 10 9 8
Wind_Direction
316 320 319 318 317 316 314 313 311 310 311 311 311 310 309 308 306 304 303 303 303 302 301 299 297 296 294 291 289 289 287 285 283 282 280 278 275 272 269 267 265 262 258
319 320 319 319 316 314 312 308 310 309 313 314 313 310 310 309 306 304 303 303 303 303 302 301 299 298 296 292 290 290 289 287 286 285 282 279 277 275 273 270 265 263 259
317 319 317 317 316 313 311 310 313 314 314 312 312 312 312 310 308 306 305 305 306 305 303 303 302 301 300 295 291 290 290 288 287 288 285 282 277 275 274 270 266 263 257
320 320 318 314 314 313 311 311 315 316 316 315 313 314 313 312 311 309 308 307 307 307 306 304 302 303 303 300 295 292 291 290 290 289 286 283 279 275 274 270 266 261 257
316 316 316 313 313 315 314 314 314 315 317 317 317 316 315 314 314 313 311 311 309 309 308 304 302 304 305 304 300 294 291 291 292 291 286 285 282 278 276 268 263 260 257
312 313 313 312 314 316 315 316 315 314 316 317 317 316 316 316 318 317 316 315 313 312 310 307 305 305 306 305 302 299 295 292 292 292 289 288 284 278 276 269 263 260 257
317 319 312 310 314 314 314 315 315 316 317 319 318 315 315 316 317 319 319 320 320 317 316 313 307 305 306 306 304 302 297 295 294 293 293 292 288 280 276 272 267 262 259
315 315 313 319 320 315 313 314 314 317 319 320 318 316 316 316 317 319 322 324 324 322 318 316 310 307 307 307 308 305 302 299 297 295 295 294 291 285 277 274 269 262 259
314 315 316 318 321 320 317 317 318 318 321 320 319 318 317 318 320 321 323 323 323 323 322 318 314 310 310 309 308 306 305 304 303 301 299 298 296 291 281 278 271 264 260
311 313 316 320 321 321 317 317 320 321 321 319 318 320 319 319 320 324 325 324 325 327 324 321 318 316 316 315 314 311 307 306 309 310 304 299 297 293 288 283 278 269 263
308 311 316 317 318 318 316 319 319 319 318 318 317 319 320 320 323 325 326 327 330 332 330 327 325 323 320 318 316 315 312 310 313 317 313 306 300 292 288 287 282 273 267
309 311 312 313 316 318 317 319 319 319 319 320 320 320 321 324 326 328 329 330 331 332 333 332 331 328 323 322 321 320 319 316 315 317 317 313 308 299 296 294 291 281 271
308 311 313 314 315 316 315 316 318 317 318 319 320 323 324 325 327 331 333 334 334 337 340 338 338 336 331 328 328 330 329 325 319 316 319 319 316 309 304 301 298 289 277
306 308 312 313 312 314 315 317 321 320 321 322 321 322 324 325 328 330 334 337 340 342 342 342 343 343 340 336 334 334 334 331 325 321 321 320 318 315 311 307 304 296 286
304 306 309 309 309 313 315 317 319 322 321 322 322 324 327 331 333 334 335 338 343 343 342 340 342 342 339 336 335 335 334 334 333 329 326 324 323 322 320 315 313 307 296
301 306 307 309 310 312 313 315 315 317 320 322 321 323 326 330 332 334 335 337 338 339 338 337 338 339 338 335 334 334 336 337 334 332 328 325 324 325 326 323 318 312 301
300 302 303 303 304 304 309 312 312 312 315 318 318 318 321 324 325 327 329 330 334 336 336 335 337 338 338 336 336 338 336 335 334 333 331 328 326 327 325 322 317 315 307
296 298 299 298 296 296 297 300 304 308 309 312 312 314 315 319 321 323 326 328 330 332 333 336 336 335 336 336 335 334 333 332 333 334 331 327 327 327 324 319 315 309 304
291 293 295 292 290 290 290 292 296 301 304 307 310 311 312 314 317 321 324 325 327 330 332 332 333 332 333 332 331 331 330 331 332 332 330 327 325 326 326 320 313 306 298
286 288 289 287 284 283 284 287 292 297 299 301 303 305 309 313 315 318 321 322 325 329 332 334 334 332 331 333 332 330 329 329 332 333 334 332 328 324 322 319 313 306 299
282 283 284 286 285 283 283 285 289 292 294 296 298 300 304 308 310 313 316 319 322 326 329 331 333 332 333 335 335 334 334 332 331 332 333 335 333 328 323 322 321 315 306
278 278 280 281 282 282 282 284 287 289 291 293 295 297 299 303 305 307 310 315 320 324 328 329 330 333 333 335 336 336 336 336 336 335 334 335 336 332 327 324 324 319 309
274 274 276 277 278 279 281 283 285 287 290 292 293 295 296 300 302 303 307 311 315 319 323 328 331 332 333 335 338 337 335 334 335 336 334 334 334 334 329 323 318 312 306
268 268 269 271 273 276 279 282 285 285 287 291 289 290 293 297 299 300 303 306 310 314 319 324 329 331 331 331 334 335 335 335 336 336 335 333 333 333 331 327 322 318 314
269 267 266 269 272 275 278 279 281 282 284 286 286 287 289 292 294 296 298 299 303 308 314 319 325 328 328 330 332 333 333 334 335 335 334 333 330 330 331 330 327 322 320
268 268 267 268 271 273 275 277 278 279 281 282 283 284 284 287 289 291 294 294 297 301 307 313 320 325 327 327 328 331 333 333 334 335 334 333 331 331 329 328 328 323 320
Height
5856 5854 5852 5850 5847 5845 5843 5841 5839 5837 5834 5831 5829 5826 5823 5821 5818 5816 5813 5811 5808 5806 5803 5801 5798 5796 5794 5793 5791 5789 5787 5786 5785 5784 5782 5781 5780 5779 5779 5779 5779 5779 5779
5853 5850 5848 5846 5844 5842 5839 5837 5835 5833 5830 5827 5824 5822 5819 5816 5814 5811 5808 5805 5803 5800 5798 5795 5793 5790 5788 5786 5784 5783 5781 5779 5778 5777 5775 5774 5774 5772 5771 5770 5770 5771 5771
5850 5847 5845 5844 5841 5839 5836 5834 5831 5829 5826 5823 5820 5817 5814 5812 5809 5806 5803 5800 5798 5795 5792 5789 5787 5785 5782 5780 5778 5776 5775 5773 5772 5770 5769 5768 5767 5766 5764 5763 5763 5763 5763
5847 5844 5842 5840 5838 5836 5833 5830 5827 5825 5822 5819 5816 5813 5810 5807 5804 5801 5798 5795 5793 5790 5787 5784 5782 5779 5777 5774 5772 5770 5769 5767 5766 5764 5762 5761 5760 5759 5758 5757 5755 5755 5756
5844 5841 5839 5836 5834 5831 5829 5826 5823 5820 5818 5815 5812 5809 5806 5803 5800 5797 5794 5791 5788 5785 5782 5779 5776 5774 5771 5769 5767 5765 5763 5761 5759 5757 5756 5754 5753 5752 5751 5750 5750 5749 5749
5840 5838 5836 5833 5829 5826 5824 5822 5819 5816 5814 5811 5807 5805 5802 5799 5796 5792 5789 5786 5783 5780 5777 5774 5771 5769 5766 5764 5762 5759 5757 5755 5753 5752 5750 5748 5747 5745 5744 5744 5743 5742 5742
5836 5834 5832 5829 5825 5823 5821 5818 5815 5812 5809 5806 5803 5801 5798 5795 5792 5789 5785 5782 5779 5776 5772 5769 5767 5764 5761 5759 5756 5754 5752 5750 5748 5746 5744 5742 5740 5739 5738 5737 5736 5736 5735
5833 5830 5828 5825 5821 5819 5817 5814 5811 5808 5805 5802 5800 5797 5794 5791 5788 5785 5782 5779 5775 5772 5768 5765 5762 5760 5757 5754 5752 5749 5747 5745 5743 5741 5739 5736 5735 5733 5732 5731 5730 5729 5729
5829 5827 5825 5822 5818 5815 5813 5810 5807 5804 5801 5799 5796 5793 5790 5788 5785 5781 5778 5775 5772 5768 5765 5761 5758 5755 5753 5750 5748 5745 5743 5741 5739 5736 5734 5731 5729 5727 5725 5724 5724 5723 5723
5825 5823 5821 5818 5815 5812 5809 5806 5803 5800 5798 5795 5793 5790 5787 5785 5781 5778 5775 5771 5768 5764 5761 5757 5754 5751 5749 5746 5744 5741 5739 5737 5735 5732 5729 5727 5724 5722 5720 5719 5717 5717 5717
5821 5819 5816 5814 5811 5808 5805 5802 5800 5797 5795 5792 5790 5787 5784 5782 5779 5775 5772 5768 5765 5761 5757 5754 5751 5748 5745 5743 5740 5738 5735 5733 5731 5728 5725 5722 5720 5718 5716 5714 5712 5711 5711
5817 5815 5812 5810 5807 5805 5802 5800 5797 5794 5792 5789 5786 5784 5781 5779 5776 5773 5769 5766 5762 5758 5754 5751 5748 5745 5742 5739 5737 5734 5732 5729 5727 5724 5721 5718 5716 5714 5711 5709 5707 5706 5705
5813 5811 5808 5806 5804 5802 5800 5797 5794 5791 5788 5786 5783 5781 5779 5776 5773 5770 5767 5763 5760 5756 5752 5749 5746 5743 5739 5737 5734 5731 5729 5726 5724 5721 5718 5715 5713 5710 5708 5706 5703 5701 5700
5809 5807 5805 5803 5801 5798 5796 5794 5791 5788 5785 5783 5781 5779 5777 5774 5771 5768 5765 5761 5758 5754 5751 5747 5744 5741 5738 5735 5732 5729 5726 5723 5720 5718 5715 5712 5710 5707 5704 5702 5700 5698 5696
5805 5803 5801 5799 5797 5794 5792 5790 5787 5785 5783 5781 5778 5776 5774 5771 5769 5766 5763 5760 5756 5753 5749 5746 5743 5739 5736 5733 5730 5727 5724 5721 5718 5715 5712 5709 5706 5704 5701 5699 5697 5695 5693
5801 5799 5797 5795 5793 5791 5789 5787 5784 5783 5780 5778 5776 5774 5771 5769 5767 5764 5761 5758 5755 5751 5748 5744 5741 5738 5734 5731 5728 5724 5721 5718 5715 5712 5709 5706 5704 5701 5699 5696 5694 5693 5691
5797 5795 5793 5791 5789 5788 5786 5784 5782 5779 5778 5776 5773 5771 5769 5767 5765 5762 5759 5756 5753 5749 5746 5743 5739 5736 5732 5729 5725 5722 5719 5716 5712 5709 5706 5703 5701 5698 5696 5694 5692 5690 5689
5792 5790 5789 5787 5785 5784 5782 5781 5779 5777 5775 5773 5771 5769 5767 5765 5763 5760 5757 5754 5751 5747 5744 5740 5737 5734 5730 5727 5723 5720 5716 5713 5710 5707 5704 5701 5698 5696 5694 5691 5689 5688 5686
5787 5785 5784 5782 5781 5780 5778 5777 5775 5774 5772 5770 5769 5767 5765 5763 5760 5757 5755 5752 5749 5745 5742 5738 5735 5732 5728 5724 5721 5717 5714 5711 5707 5704 5701 5698 5696 5693 5691 5689 5687 5685 5684
5781 5780 5778 5777 5776 5775 5774 5773 5772 5770 5769 5767 5766 5764 5762 5760 5758 5755 5752 5749 5746 5743 5739 5736 5733 5729 5726 5722 5718 5715 5711 5708 5705 5702 5699 5696 5693 5691 5688 5686 5684 5683 5681
5775 5774 5772 5771 5770 5770 5770 5769 5768 5767 5765 5764 5762 5760 5758 5756 5754 5752 5749 5746 5743 5740 5737 5734 5730 5726 5723 5719 5715 5712 5709 5705 5702 5699 5696 5694 5691 5688 5686 5684 5682 5680 5679
5768 5767 5766 5766 5766 5765 5765 5764 5763 5762 5761 5759 5758 5756 5754 5752 5750 5747 5745 5743 5740 5737 5734 5731 5728 5724 5720 5716 5713 5709 5706 5703 5700 5697 5694 5692 5689 5686 5683 5682 5680 5678 5677
5761 5761 5761 5760 5760 5760 5759 5759 5758 5757 5756 5754 5753 5751 5749 5747 5745 5743 5741 5739 5737 5734 5732 5728 5725 5721 5718 5714 5710 5707 5704 5701 5698 5695 5692 5689 5687 5684 5682 5680 5678 5676 5674
5754 5754 5754 5754 5754 5754 5753 5753 5752 5751 5750 5749 5747 5746 5745 5743 5741 5739 5737 5735 5733 5731 5728 5725 5722 5719 5715 5712 5708 5705 5702 5699 5696 5693 5690 5688 5685 5682 5680 5678 5676 5674 5672
5747 5747 5747 5748 5748 5747 5747 5747 5746 5745 5744 5743 5742 5741 5739 5738 5736 5735 5733 5732 5730 5727 5725 5722 5719 5716 5713 5709 5706 5703 5700 5697 5694 5691 5688 5685 5683 5680 5678 5676 5674 5672 5671
5739 5739 5740 5740 5740 5740 5740 5740 5739 5738 5738 5737 5736 5735 5734 5733 5732 5730 5729 5727 5725 5723 5721 5719 5716 5713 5710 5707 5704 5701 5698 5695 5692 5689 5686 5684 5681 5679 5677 5675 5673 5671 5670